Location: Cahas Mountain Overlook
(37.0833°N, 80.1000°W)
Time: 18:25:40
(UTC-05:00)

Vanguard 3 - Pass Details

Date: 13 December 2023
Orbit: 508 x 3239 km, 33.4° (Epoch: 23 February)

Event Time Altitude Azimuth Distance (km) Brightness Sun altitude
Rises 23:07:02 0° 275° (W) 6,540 12.0 -69.9°
Reaches altitude 10° 23:12:00 10° 273° (W) 5,156 11.3 -70.6°
Enters shadow 23:13:52 15° 272° (W) 4,620 11.0 -70.9°
